Bontekoning — PH9144 — position and weather

sailwx.info

Track history (hours):
 
Tides and Currents Weather Stations Pressure Air Temp Water Temp Dewpoint Dewpoint Depression Visibility Wind Speed Wind Dir Waves Ship Positions

Bontekoning

Last reported at 2015-May-24 04:33 UTC. Time now 2015-May-24 05:19 UTC.
Position N 37°06' E 013°56'.

; draft 2.6 m.

Type: Sailing vessel. MMSI: 244107000.

Date/timePositionNaut miles runAvg speedWind from/ knotsBaromVisibWave heightAir tempDewpointWater temp
2015-May-24 04:33N 37°06' E 013°56'0 0.0
2015-May-24 03:33N 37°06' E 013°56'0 0.0
2015-May-24 02:33N 37°06' E 013°56'0 0.0
2015-May-24 01:33N 37°06' E 013°56'0 0.0
2015-May-24 00:33N 37°06' E 013°56'0 0.0
2015-May-23 23:33N 37°06' E 013°56'0 0.0
2015-May-23 22:33N 37°06' E 013°56'0 0.0
2015-May-23 21:33N 37°06' E 013°56'0 0.0
2015-May-23 20:33N 37°06' E 013°56'0 0.0
2015-May-23 19:33N 37°06' E 013°56'0 0.0
2015-May-23 18:33N 37°06' E 013°56'0 0.0
2015-May-23 17:33N 37°06' E 013°56'1 0.7
2015-May-23 16:33N 37°05' E 013°57'3 2.7
2015-May-23 15:33N 37°05' E 014°00'2 2.2
2015-May-23 14:33N 37°05' E 014°03'4 3.9
2015-May-23 13:33N 37°03' E 014°07'5 5.4
2015-May-23 12:33N 36°58' E 014°10'6 6.3
2015-May-23 11:33N 36°53' E 014°14'7 6.6
2015-May-23 10:33N 36°46' E 014°16'7 6.9
2015-May-23 09:33N 36°39' E 014°17'3 2.5
2015-May-23 08:33N 36°38' E 014°20'5 5.4
2015-May-23 07:33N 36°41' E 014°26'5 4.2
2015-May-23 06:25N 36°45' E 014°30'3 0.4
2015-May-22 22:33N 36°47' E 014°33'0 0.0
2015-May-22 21:33N 36°47' E 014°33'0 0.0
2015-May-22 20:33N 36°47' E 014°33'0 0.0
2015-May-22 19:33N 36°47' E 014°33'0 0.0
2015-May-22 18:14N 36°47' E 014°33'0 0.0
2015-May-22 17:33N 36°47' E 014°33'0 0.0
2015-May-22 15:19N 36°47' E 014°33'0 0.0
2015-May-22 13:33N 36°47' E 014°33'0 0.0
2015-May-22 12:32N 36°47' E 014°33'0 0.0
2015-May-22 11:16N 36°47' E 014°33'0 0.0
2015-May-22 08:07N 36°47' E 014°33'0 0.0
2015-May-22 02:17N 36°47' E 014°33'0 0.0
2015-May-21 22:28N 36°47' E 014°33'0 0.0
2015-May-21 21:30N 36°47' E 014°33'0 0.0
2015-May-21 20:20N 36°47' E 014°33'0 0.0
2015-May-21 19:33N 36°47' E 014°33'0 0.0
2015-May-21 18:32N 36°47' E 014°33'4 4.5
2015-May-21 17:33N 36°44' E 014°37'6 5.9
2015-May-21 16:28N 36°42' E 014°45'4 3.9
2015-May-21 15:19N 36°43' E 014°50'2 2.1
2015-May-21 14:31N 36°42' E 014°52'5 5.0
2015-May-21 13:30N 36°39' E 014°57'19 6.4
2015-May-21 10:30N 36°51' E 015°16'13 5.7
2015-May-21 08:15N 37°04' E 015°17'0 0.0
2015-May-21 06:30N 37°04' E 015°17'0 0.0
2015-May-21 05:21N 37°04' E 015°17'0 0.0
2015-May-21 02:10N 37°04' E 015°17'0 0.0
2015-May-21 01:33N 37°04' E 015°17'0 0.0
2015-May-21 00:33N 37°04' E 015°17'0 0.0
2015-May-20 23:28N 37°04' E 015°17'0 0.0
2015-May-20 22:33N 37°04' E 015°17'0 0.0
2015-May-20 21:23N 37°04' E 015°17'0 0.0
2015-May-20 20:33N 37°04' E 015°17'0 0.0
2015-May-20 19:33N 37°04' E 015°17'0 0.0
2015-May-20 18:07N 37°04' E 015°17'0 0.0
2015-May-20 14:33N 37°04' E 015°17'0 0.0
2015-May-19 19:15N 37°03' E 015°17'  
2015-May-16 00:25N 38°42' E 016°33'0 0.0
2015-May-15 23:18N 38°42' E 016°33'0 0.0
2015-May-15 22:33N 38°42' E 016°33'0 0.0
2015-May-15 18:14N 38°42' E 016°33'0 0.0
2015-May-15 17:33N 38°42' E 016°33'0 0.0
2015-May-15 16:29N 38°42' E 016°33'0 0.0
2015-May-15 15:33N 38°42' E 016°33'0 0.0
2015-May-15 12:17N 38°42' E 016°33'2 3.1
2015-May-15 11:33N 38°44' E 016°34'4 3.9
2015-May-15 10:33N 38°46' E 016°38'4 3.5
2015-May-15 09:23N 38°49' E 016°42'2 2.6
2015-May-15 08:30N 38°49' E 016°45'3 3.0
2015-May-15 07:33N 38°50' E 016°49'  
Track history (hours):
 
Tides and Currents Weather Stations Pressure Air Temp Water Temp Dewpoint Dewpoint Depression Visibility Wind Speed Wind Dir Waves Ship Positions

Bontekoning

Last reported at 2015-May-24 04:33 UTC. Time now 2015-May-24 05:19 UTC.
Position N 37°06' E 013°56'.

; draft 2.6 m.

Type: Sailing vessel. MMSI: 244107000.

Date/timePositionNaut miles runAvg speedWind from/ knotsBaromVisibWave heightAir tempDewpointWater temp
2015-May-24 04:33N 37°06' E 013°56'0 0.0
2015-May-24 03:33N 37°06' E 013°56'0 0.0
2015-May-24 02:33N 37°06' E 013°56'0 0.0
2015-May-24 01:33N 37°06' E 013°56'0 0.0
2015-May-24 00:33N 37°06' E 013°56'0 0.0
2015-May-23 23:33N 37°06' E 013°56'0 0.0
2015-May-23 22:33N 37°06' E 013°56'0 0.0
2015-May-23 21:33N 37°06' E 013°56'0 0.0
2015-May-23 20:33N 37°06' E 013°56'0 0.0
2015-May-23 19:33N 37°06' E 013°56'0 0.0
2015-May-23 18:33N 37°06' E 013°56'0 0.0
2015-May-23 17:33N 37°06' E 013°56'1 0.7
2015-May-23 16:33N 37°05' E 013°57'3 2.7
2015-May-23 15:33N 37°05' E 014°00'2 2.2
2015-May-23 14:33N 37°05' E 014°03'4 3.9
2015-May-23 13:33N 37°03' E 014°07'5 5.4
2015-May-23 12:33N 36°58' E 014°10'6 6.3
2015-May-23 11:33N 36°53' E 014°14'7 6.6
2015-May-23 10:33N 36°46' E 014°16'7 6.9
2015-May-23 09:33N 36°39' E 014°17'3 2.5
2015-May-23 08:33N 36°38' E 014°20'5 5.4
2015-May-23 07:33N 36°41' E 014°26'5 4.2
2015-May-23 06:25N 36°45' E 014°30'3 0.4
2015-May-22 22:33N 36°47' E 014°33'0 0.0
2015-May-22 21:33N 36°47' E 014°33'0 0.0
2015-May-22 20:33N 36°47' E 014°33'0 0.0
2015-May-22 19:33N 36°47' E 014°33'0 0.0
2015-May-22 18:14N 36°47' E 014°33'0 0.0
2015-May-22 17:33N 36°47' E 014°33'0 0.0
2015-May-22 15:19N 36°47' E 014°33'0 0.0
2015-May-22 13:33N 36°47' E 014°33'0 0.0
2015-May-22 12:32N 36°47' E 014°33'0 0.0
2015-May-22 11:16N 36°47' E 014°33'0 0.0
2015-May-22 08:07N 36°47' E 014°33'0 0.0
2015-May-22 02:17N 36°47' E 014°33'0 0.0
2015-May-21 22:28N 36°47' E 014°33'0 0.0
2015-May-21 21:30N 36°47' E 014°33'0 0.0
2015-May-21 20:20N 36°47' E 014°33'0 0.0
2015-May-21 19:33N 36°47' E 014°33'0 0.0
2015-May-21 18:32N 36°47' E 014°33'4 4.5
2015-May-21 17:33N 36°44' E 014°37'6 5.9
2015-May-21 16:28N 36°42' E 014°45'4 3.9
2015-May-21 15:19N 36°43' E 014°50'2 2.1
2015-May-21 14:31N 36°42' E 014°52'5 5.0
2015-May-21 13:30N 36°39' E 014°57'19 6.4
2015-May-21 10:30N 36°51' E 015°16'13 5.7
2015-May-21 08:15N 37°04' E 015°17'0 0.0
2015-May-21 06:30N 37°04' E 015°17'0 0.0
2015-May-21 05:21N 37°04' E 015°17'0 0.0
2015-May-21 02:10N 37°04' E 015°17'0 0.0
2015-May-21 01:33N 37°04' E 015°17'0 0.0
2015-May-21 00:33N 37°04' E 015°17'0 0.0
2015-May-20 23:28N 37°04' E 015°17'0 0.0
2015-May-20 22:33N 37°04' E 015°17'0 0.0
2015-May-20 21:23N 37°04' E 015°17'0 0.0
2015-May-20 20:33N 37°04' E 015°17'0 0.0
2015-May-20 19:33N 37°04' E 015°17'0 0.0
2015-May-20 18:07N 37°04' E 015°17'0 0.0
2015-May-20 14:33N 37°04' E 015°17'0 0.0
2015-May-19 19:15N 37°03' E 015°17'  
2015-May-16 00:25N 38°42' E 016°33'0 0.0
2015-May-15 23:18N 38°42' E 016°33'0 0.0
2015-May-15 22:33N 38°42' E 016°33'0 0.0
2015-May-15 18:14N 38°42' E 016°33'0 0.0
2015-May-15 17:33N 38°42' E 016°33'0 0.0
2015-May-15 16:29N 38°42' E 016°33'0 0.0
2015-May-15 15:33N 38°42' E 016°33'0 0.0
2015-May-15 12:17N 38°42' E 016°33'2 3.1
2015-May-15 11:33N 38°44' E 016°34'4 3.9
2015-May-15 10:33N 38°46' E 016°38'4 3.5
2015-May-15 09:23N 38°49' E 016°42'2 2.6
2015-May-15 08:30N 38°49' E 016°45'3 3.0
2015-May-15 07:33N 38°50' E 016°49'  

Dump ship's entire track history